Regional Weather Roundup
Issued by NWS

Home | Current Version | Previous Version | Graphics & Text | Print | Product List | Glossary On
Versions: 1 2 3 4 5 6 7 8 9 10 11 12 13 14 15 16 17 18 19 20 21 22 23 24 25 26 27
000
ASUS45 KBOU 221507
RWRCO

WEATHER ROUNDUP FOR COLORADO
NATIONAL WEATHER SERVICE DENVER/BOULDER CO
800 AM MST SUN JAN 22 2017

NOTE: "FAIR" INDICATES FEW OR NO CLOUDS BELOW 12000 FEET WITH NO
SIGNIFICANT WEATHER AND/OR OBSTRUCTIONS TO VISIBILITY.

COZ001>005-013-030-031-221600-
...NORTHWEST COLORADO...

CITY           SKY/WX    TMP DP  RH WIND       PRES   REMARKS
CRAIG          FAIR       6   3  87 CALM      30.04R FOG
HAYDEN         FAIR      12   9  85 S3        30.01R
MEEKER         FAIR       6   3  87 NE3       30.04R
MOUNT WERNER   NOT AVBL
STEAMBOAT SPGS MOCLDY    20  18  92 CALM      30.00R
WALDEN           N/A     12   5  73 SE6       29.95R WCI   3
$$

COZ006>008-011-221600-
...WEST CENTRAL VALLEYS...

CITY           SKY/WX    TMP DP  RH WIND       PRES   REMARKS
GRAND JUNCTION FAIR      25  24  96 E3        30.09R
MONTROSE       FAIR      21  15  78 SE8       30.12R WCI  11
EAGLE          NOT AVBL
RIFLE          FAIR      24  21  88 W7        30.07R WCI  16
DELTA          FAIR      28  22  78 N6        30.12R WCI  21
NUCLA          FAIR      19  14  79 E5        30.16R WCI  13
$$

COZ017>023-064>068-221600-
...SOUTHWEST COLORADO...

CITY           SKY/WX    TMP DP  RH WIND       PRES   REMARKS
DURANGO        FAIR       4   0  83 N6        30.10R WCI  -7
CORTEZ         FAIR       7   4  87 NE7       30.14R WCI  -5
PAGOSA SPRINGS CLOUDY    20  17  90 CALM      30.07R
TELLURIDE      FAIR      10   6  81 E6        30.07R WCI   1
WOLF CREEK PAS   N/A      5   3  92 W5        29.99R WCI  -4
$$

COZ009-010-012-014-032>034-037-058>063-221600-
...CENTRAL COLORADO...

CITY           SKY/WX    TMP DP  RH WIND       PRES   REMARKS
ASPEN          MOCLDY    20  19  96 CALM      29.99R
BUENA VISTA    FAIR      12   5  74 CALM      29.95R
COPPER MTN     CLOUDY     9   1  72 MISG      29.87S
BERTHOUD PASS  NOT AVBL
COTTONWOOD PAS CLOUDY    21   7  53 W13G24    29.91S WCI   9
GUNNISON       FAIR       6   3  87 N9        30.04R WCI  -8
KREMMLING      MOCLDY    19  14  79 CALM      30.00R
LEADVILLE      CLOUDY     9   3  77 N8        29.91R WCI  -3
MONARCH PASS   CLOUDY     5   1  85 W12G31    29.99R WCI -11
SALIDA         FAIR      26  11  53 W13G18    30.03R WCI  15
SUNLIGHT       CLOUDY   N/A N/A N/A MISG      29.99R
WILKERSON PASS FAIR      10   1  67 NW10G20   29.88R WCI  -3
$$

COZ069>075-221600-
...SAN LUIS VALLEY/SANGRE DE CRISTO MOUNTAINS...

CITY           SKY/WX    TMP DP  RH WIND       PRES   REMARKS
ALAMOSA        FAIR       0  -5  79 W7        30.00R WCI -13
LA VETA PASS   FAIR      12   9  85 NE13G21   29.89S WCI  -3
SAGUACHE       FAIR      19  10  68 N12       30.00R WCI   7
$$

COZ035-036-038>040-221600-
...NORTHERN COLORADO FRONT RANGE...

CITY           SKY/WX    TMP DP  RH WIND       PRES   REMARKS
DENVER INTL AP FAIR      28  15  58 SW8       29.89R WCI  20
DMNS CITY PARK   N/A     34   8  33 MISG      29.91R
AURORA         PTCLDY    27  14  58 SW6       29.91R WCI  21
FRONT RANGE AP PTCLDY    30  18  59 SW10      29.90R WCI  21
ERIE MUNI ARPT FAIR      28  17  64 S3        29.90R
BOULDER MUN AP FAIR      34  10  37 W7        29.89R WCI  28
CENTENNIAL     FAIR      30  10  43 NW7       29.90R WCI  23
BROOMFIELD     PTCLDY    36   9  32 W23G30    29.89R
FORT COLLINS   FAIR      34  12  40 N5        29.90R WCI  30
LONGMONT       FAIR      29  18  63 W7        29.91R WCI  22
$$

COZ041-046-047-076>085-087-088-221600-
...PIKES PEAK/PALMER DIVIDE AND SOUTHERN FOOTHILLS...

CITY           SKY/WX    TMP DP  RH WIND       PRES   REMARKS
COLO. SPRINGS  FAIR      33   5  30 NW15      29.90R WCI  23
A. F. ACADEMY  FAIR      28   5  36 NW16G22   29.88R WCI  17
SCHRIEVER AFB  NOT AVBL
ELLICOTT       FAIR     N/A N/A N/A N8        29.88R
FALCON         FAIR      28   6  38 NW6       29.90R WCI  22
FORT CARSON    NOT AVBL
LIMON          FAIR      24  20  84 CALM      29.90R
MONUMENT HILL  FAIR      21  10  63 W7        29.90R WCI  13
TRINIDAD       FAIR      23  13  65 W7        29.92R WCI  15
$$

COZ042>045-048>051-090-091-221600-
...NORTHEAST COLORADO...

CITY           SKY/WX    TMP DP  RH WIND       PRES   REMARKS
GREELEY ARPT   FAIR      32  18  56 NW10      29.92  WCI  24
AKRON          FAIR      27  21  78 W8        29.89R WCI  19
BURLINGTON     FAIR      31  26  82 NW14      29.88R WCI  21
WRAY           NOT AVBL
STERLING       FAIR      32  23  69 NW13      29.87R WCI  22
HOLYOKE        FAIR      34  25  69 NW14G23   29.87R WCI  24
FORT MORGAN    CLOUDY    34  19  55 NW18G25   29.90R WCI  23
$$

COZ086-089-092>099-221600-
...SOUTHEAST COLORADO...

CITY           SKY/WX    TMP DP  RH WIND       PRES   REMARKS
PUEBLO         FAIR      35  17  47 NW14      29.91R WCI  26
LA JUNTA       FAIR      29  24  82 W13       29.91R WCI  19
LAMAR          FAIR      30  27  88 W6        29.90R WCI  24
SPRINGFIELD      N/A     33  29  85 NW15      29.88R WCI  23
$$




USA.gov is the U.S. government's official web portal to all federal, state and local government web resources and services.